FW5790 Weather Reports


Display with metric or nautical units.
time (UTC)temp
F
wind
direction
speed
MPH
gust
MPH
rain 1hr
in
rain 24hr
in
rain mn
in
humidity
%
barometer
mb
20260510144545 69 0 0.0 0.0 0.00 0.00 0.00 74 1016.5
20260510143050 68 0 0.0 0.0 0.00 0.00 0.00 76 1016.4
20260510141548 66 0 0.0 0.0 0.00 0.00 0.00 76 1016.3
20260510140047 65 0 0.0 1.0 0.00 0.00 0.00 79 1016.2
20260510134544 64 0 0.0 1.0 0.00 0.00 0.00 77 1016.0
20260510133043 63 0 0.0 0.0 0.00 0.00 0.00 82 1015.9
20260510131544 62 0 0.0 0.0 0.00 0.00 0.00 83 1015.6
20260510130048 61 0 0.0 0.0 0.00 0.00 0.00 83 1015.6
20260510124547 60 0 0.0 0.0 0.00 0.00 0.00 83 1015.3
20260510123043 60 0 0.0 0.0 0.00 0.00 0.00 83 1015.0
20260510121548 59 0 0.0 0.0 0.00 0.00 0.00 83 1014.6
20260510120042 58 0 0.0 0.0 0.00 0.00 0.00 82 1014.5
20260510114556 58 0 0.0 0.0 0.00 0.00 0.00 83 1014.1
20260510113045 57 0 0.0 0.0 0.00 0.00 0.00 84 1014.1
20260510111545 57 0 0.0 0.0 0.00 0.00 0.00 85 1014.2
20260510110043 57 0 0.0 0.0 0.00 0.00 0.00 84 1014.3
20260510104544 57 0 0.0 0.0 0.00 0.00 0.00 85 1014.0
20260510103049 57 0 0.0 0.0 0.00 0.00 0.00 84 1013.6
20260510101544 56 0 0.0 0.0 0.00 0.00 0.00 85 1013.4
20260510100109 56 0 0.0 0.0 0.00 0.00 0.00 85 1013.4
20260510094555 56 0 0.0 0.0 0.00 0.00 0.00 85 1013.4
20260510093053 56 0 0.0 0.0 0.00 0.00 0.00 85 1013.5
20260510091547 56 0 0.0 0.0 0.00 0.00 0.00 85 1013.2
20260510090048 56 0 0.0 0.0 0.00 0.00 0.00 84 1012.7
20260510084545 56 0 0.0 0.0 0.00 0.00 0.00 84 1012.8
20260510083052 56 0 0.0 0.0 0.00 0.00 0.00 84 1012.8
20260510081547 56 0 0.0 0.0 0.00 0.00 0.00 83 1012.7
20260510080042 56 0 0.0 0.0 0.00 0.00 0.00 82 1012.5
20260510074545 57 0 0.0 0.0 0.00 0.00 0.00 81 1012.2
20260510073045 57 0 0.0 0.0 0.00 0.00 0.00 81 1012.2
20260510071552 57 0 0.0 0.0 0.00 0.00 0.00 80 1012.2
20260510070045 57 0 0.0 0.0 0.00 0.00 0.00 81 1012.0
20260510064544 57 0 0.0 0.0 0.00 0.00 0.00 81 1011.9
20260510063044 57 0 0.0 0.0 0.00 0.00 0.00 81 1011.9
20260510061551 57 0 0.0 0.0 0.00 0.00 0.00 81 1012.2
20260510060048 57 0 0.0 0.0 0.00 0.00 0.00 81 1012.3
20260510054549 58 0 0.0 0.0 0.00 0.00 0.00 82 1012.3
20260510053043 58 0 0.0 0.0 0.00 0.00 0.00 82 1012.4
20260510051543 58 0 0.0 0.0 0.00 0.00 0.00 80 1012.4
20260510050054 59 0 0.0 0.0 0.00 0.00 0.00 81 1012.4
20260510044548 59 0 0.0 0.0 0.00 0.00 0.00 80 1012.4
20260510043054 60 0 0.0 0.0 0.00 0.00 0.00 79 1012.5
20260510041544 59 0 0.0 0.0 0.00 0.00 0.00 76 1012.3
20260510040046 60 0 0.0 0.0 0.00 0.00 0.00 77 1012.4
20260510034543 60 0 0.0 0.0 0.00 0.00 0.00 76 1012.4
20260510033102 60 0 0.0 0.0 0.00 0.00 0.00 76 1012.5
20260510031552 61 0 0.0 0.0 0.00 0.00 0.00 77 1012.6
20260510030043 61 0 0.0 0.0 0.00 0.00 0.00 75 1012.5
20260510024554 61 0 0.0 0.0 0.00 0.00 0.00 72 1012.4
20260510023049 62 0 0.0 0.0 0.00 0.00 0.00 72 1012.2
20260510021546 62 0 0.0 0.0 0.00 0.00 0.00 69 1012.0
20260510020047 63 0 0.0 0.0 0.00 0.00 0.00 68 1011.6
20260510014549 64 0 0.0 0.0 0.00 0.00 0.00 66 1011.3
20260510013053 64 0 0.0 0.0 0.00 0.00 0.00 66 1011.1
20260510011555 65 0 0.0 0.0 0.00 0.00 0.00 65 1011.0
20260510010046 65 0 0.0 0.0 0.00 0.00 0.00 65 1010.6
20260510004550 67 0 0.0 1.0 0.00 0.00 0.00 66 1010.4
20260510003103 68 0 0.0 0.0 0.00 0.00 0.00 64 1010.1
20260510001544 69 0 0.0 0.0 0.00 0.00 0.00 61 1009.8
20260510000047 70 0 0.0 0.0 0.00 0.00 0.00 57 1009.6
20260509234600 72 103 0.0 2.0 0.00 0.00 0.00 55 1009.4
20260509233047 71 102 0.0 0.0 0.00 0.00 0.00 58 1009.4
20260509231552 72 102 1.0 2.0 0.00 0.00 0.00 55 1009.4
20260509230050 72 100 0.0 1.0 0.00 0.00 0.00 60 1009.3
20260509224544 73 99 0.0 2.0 0.00 0.00 0.00 58 1009.1
20260509223051 74 98 1.0 3.0 0.00 0.00 0.00 51 1009.2
20260509221548 74 90 0.0 3.0 0.00 0.00 0.00 50 1009.2
20260509220045 74 102 1.0 2.0 0.00 0.00 0.00 50 1009.3
20260509214544 74 109 0.0 2.0 0.00 0.00 0.00 54 1009.3
20260509213044 74 0 0.0 3.0 0.00 0.00 0.00 52 1009.4
20260509211544 74 96 0.0 1.0 0.00 0.00 0.00 54 1009.4
20260509210052 74 91 1.0 2.0 0.00 0.00 0.00 51 1009.3
20260509204546 75 103 0.0 2.0 0.00 0.00 0.00 53 1009.5
20260509203045 74 0 0.0 2.0 0.00 0.00 0.00 54 1009.5
20260509201543 74 101 0.0 2.0 0.00 0.00 0.00 58 1009.6
20260509200052 74 85 2.0 3.0 0.00 0.00 0.00 55 1009.7
20260509194543 74 0 0.0 2.0 0.00 0.00 0.00 58 1009.9
20260509193050 74 93 1.0 3.0 0.00 0.00 0.00 59 1010.3
20260509191546 74 73 1.0 3.0 0.00 0.00 0.00 55 1010.2
20260509190045 74 94 1.0 2.0 0.00 0.00 0.00 59 1010.2
20260509184542 74 99 0.0 2.0 0.00 0.00 0.00 59 1010.4
20260509183109 73 94 1.0 3.0 0.00 0.00 0.00 61 1010.6
20260509181601 73 83 2.0 4.0 0.00 0.00 0.00 61 1010.3
20260509180042 72 96 1.0 2.0 0.00 0.00 0.00 61 1010.5
20260509174545 73 77 1.0 3.0 0.00 0.00 0.00 66 1010.8
20260509173046 72 89 2.0 4.0 0.00 0.00 0.00 63 1010.7
20260509171544 71 0 1.0 3.0 0.00 0.00 0.00 67 1010.6
20260509170043 71 108 1.0 3.0 0.00 0.00 0.00 65 1010.8
20260509164558 70 116 0.0 3.0 0.00 0.00 0.00 65 1010.8
20260509163045 70 99 1.0 3.0 0.00 0.00 0.00 64 1010.5
20260509161543 70 111 0.0 2.0 0.00 0.00 0.00 66 1010.5
20260509160042 70 78 1.0 2.0 0.00 0.00 0.00 66 1010.6
20260509154551 69 94 1.0 2.0 0.00 0.00 0.00 68 1010.5
20260509153043 68 94 0.0 3.0 0.00 0.00 0.00 70 1010.4
20260509151550 67 97 0.0 2.0 0.00 0.00 0.00 70 1010.3
20260509150046 66 0 0.0 2.0 0.00 0.00 0.00 72 1010.2